Вернуться в каталог

DELTA 1 DEB

АктивенSSO
NORAD 12294·DEBRIS·🇺🇸 United States

Запущен Mar 5, 1978 с Vandenberg Space Force Base

Loading…

Ближайшие Пролёты (ближайшие 24 часа)

TLE

СвежийSource: Space-Track

Эпоха: Sep 14, 2026, 04:15 UTC

1 12294U 78026EN  26257.17753641  .00000646  00000-0  18955-3 0  9994
2 12294  98.5842 242.5658 0090233 358.2903   1.7967 14.45036339386785

Отслеживайте DELTA 1 DEB в реальном времени с AllMySat

Download on the App Store